United States

Ashburn, VA Weather Archive

Below you will find the last 24 hours of weather readings for Ashburn VA

Ashburn VA Today's Weather Data

Observed at: Ashburn, VA

Hour Observerd Temp Pressure Visibility Humidity Dew Point Wind
00:00 Mostly Cloudy 59°F (15°C) 98.21 kPa 10 miles 100% 59°F (15°C) 4 mph NW 308.75°
23:00 Partly Cloudy 61°F (16.1°C) 98.21 kPa 10 miles 100% 60.8°F (16°C) 5 mph N 5°18 mph
22:00 Light Rain 63°F (17.2°C) 98.21 kPa 10 miles 94% 60.8°F (16°C) 5 mph N 5°18 mph
21:00 Partly Cloudy 77°F (25°C) 98.21 kPa 10 miles 65% 64.4°F (18°C) 5 mph SW 218.75°26 mph
20:00 Partly Cloudy 77°F (25°C) 98.21 kPa 10 miles 65% 64.4°F (18°C) 5 mph SW 218.75°31 mph
19:00 Partly Cloudy 82°F (27.8°C) 98.21 kPa 10 miles 45% 59°F (15°C) 5 mph S 173.75°20 mph
18:00 Partly Cloudy 82°F (27.8°C) 98.21 kPa 10 miles 45% 59°F (15°C) 5 mph S 173.75°20 mph
17:00 Fair 82°F (27.8°C) 98.21 kPa 10 miles 45% 59°F (15°C) 4 mph W 263.75°
16:00 Fair 82°F (27.8°C) 98.21 kPa 10 miles 42% 57.2°F (14°C) 5 mph SW 218.75°16 mph
15:00 Fair 82°F (27.8°C) 98.21 kPa 10 miles 40% 55.4°F (13°C) 10 mph W 263.75°18 mph
14:00 Partly Cloudy 81°F (27.2°C) 98.21 kPa 10 miles 39% 53.6°F (12°C) 11 mph NW 308.75°18 mph
13:00 Partly Cloudy 79°F (26.1°C) 98.21 kPa 10 miles 58% 62.6°F (17°C) 6 mph NW 308.75°10 mph
12:00 Partly Cloudy 77°F (25°C) 98.21 kPa 10 miles 61% 62.6°F (17°C) 11 mph W 263.75°16 mph
11:00 Partly Cloudy 70°F (21.1°C) 98.21 kPa 10 miles 78% 62.6°F (17°C) 3 mph N 5°
10:00 Partly Cloudy 70°F (21.1°C) 98.21 kPa 10 miles 78% 62.6°F (17°C) 3 mph N 5°
09:00 Partly Cloudy 68°F (20°C) 98.21 kPa 10 miles 78% 60.8°F (16°C) 5 mph S 173.75°
08:00 Mostly Cloudy 64°F (17.8°C) 98.21 kPa 10 miles 88% 60.8°F (16°C) 4 mph SW 218.75°
07:00 Overcast 59°F (15°C) 98.21 kPa 10 miles 94% 57.2°F (14°C) 4 mph SW 218.75°
06:00 Mostly Cloudy 59°F (15°C) 98.21 kPa 10 miles 94% 57.2°F (14°C) 4 mph SW 218.75°
05:00 Mostly Cloudy 59°F (15°C) 98.21 kPa 10 miles 94% 57.2°F (14°C) 4 mph SW 218.75°
04:00 Overcast 61°F (16.1°C) 98.21 kPa 10 miles 94% 59°F (15°C) 6 mph S 173.75°
03:00 Mostly Cloudy 61°F (16.1°C) 98.21 kPa 10 miles 100% 60.8°F (16°C) 4 mph S 173.75°
02:00 Mostly Cloudy 61°F (16.1°C) 98.21 kPa 10 miles 100% 60.8°F (16°C) 5 mph S 173.75°
01:00 Fair 63°F (17.2°C) 98.21 kPa 10 miles 94% 60.8°F (16°C) 4 mph S 173.75°


Home | Earthquakes | About Us | Contact Us | Privacy

Copyright Friendly Forecast 2012 - 2021